Hourly Weather Roundup
Issued by NWS Central Illinois

Home | Current Version | Previous Version | Text Only | Print | Product List | Glossary On
Versions: 1 2 3 4 5 6 7 8 9 10 11 12 13 14 15 16 17 18 19 20 21 22 23 24 25 26 27 28 29 30 31 32 33 34 35 36 37 38 39 40 41 42 43 44 45 46 47 48 49 50
000
NZUS43 KILX 222210
HWRILX

Area Weather Roundup
National Weather Service Lincoln IL
500 PM CDT THU JUN 22 2017

NOTE:  "FAIR" indicates few or no clouds below 12,000 feet, with
       no sigificant weather and/or obstructions to visibility.


CITY           SKY/WX    TMP DP  RH WIND       PRES   REMARKS
Bloomington    CLOUDY    81  72  74 S10       29.79F HX  85
Champaign      LGT RAIN  77  71  82 S14G25    29.81F
Danville       CLOUDY    79  72  77 S16       29.80F HX  83
Decatur        CLOUDY    79  72  79 S16       29.79S HX  82
Effingham      CLOUDY    77  73  87 SE12G17   29.82F
Flora          CLOUDY    77  73  88 SE13      29.82F
Galesburg      MOSUNNY   82  71  69 S14       29.75F HX  86
Jacksonville   CLOUDY    83  71  68 S9        29.76S HX  87
Lacon          PTSUNNY   82  73  72 SW10      29.74F HX  88
Lawrenceville  CLOUDY    76  71  85 SE21      29.84F
Litchfield     CLOUDY    79  65  61 SE10      29.78S HX  81
$$


CITY           SKY/WX    TMP DP  RH WIND       PRES   REMARKS
Lincoln        CLOUDY    84  73  70 S7G17     29.77F HX  90
Macomb         CLOUDY    82  72  71 S12       29.76F HX  86
Mattoon        CLOUDY    75  73  93 S14G21    29.82F
Mt Carmel AP   DRIZZLE   74  71  88 SE12G22   29.84F
Olney-Noble AP CLOUDY    75  75 100 SE13      29.83F
Paris AP       CLOUDY    77  71  82 S16G22    29.85S
Peoria         PTSUNNY   83  73  72 S10       29.75F HX  89
Pontiac        CLOUDY    83  74  73 S13       29.78F HX  90
Rantoul        CLOUDY    83  73  70 S16G23    29.80F HX  89
Robinson       CLOUDY    74  71  91 SE10      29.85F
Springfield    CLOUDY    83  73  72 S12       29.76F HX  89
Taylorville    CLOUDY    79  73  80 SE13      29.79S HX  83
$$

...REGIONAL REPORTS...


CITY           SKY/WX    TMP DP  RH WIND       PRES   REMARKS
Chicago O`Hare PTSUNNY   86  69  56 S17G29    29.73F HX  90
Kankakee       CLOUDY    82  72  73 S12       29.79F HX  86
Moline         SUNNY     86  70  58 S14G24    29.69F HX  90
Mount Sterling CLOUDY    80  73  77 S7        29.75F HX  84
Mount Vernon   CLOUDY    77  73  88 SE8       29.81F
Pittsfield     CLOUDY    82  73  73 S7        29.77S HX  88
Quincy         CLOUDY    82  73  74 S9        29.74F HX  87
Rockford       CLOUDY    85  70  60 S17G29    29.70F HX  89
$$


CITY           SKY/WX    TMP DP  RH WIND       PRES   REMARKS
Burlington     PTSUNNY   84  73  69 S14       29.71F HX  90
Cedar Rapids   MOSUNNY   85  74  69 S7        29.67F HX  92
Des Moines     PTSUNNY   86  67  52 SW16      29.65S HX  89
Kirksville     CLOUDY    83  72  69 S14       29.72F HX  88
Ottumwa        CLOUDY    85  69  58 S14G24    29.62F HX  89
St Louis       PTSUNNY   85  71  63 S10       29.76F HX  90
$$


CITY           SKY/WX    TMP DP  RH WIND       PRES   REMARKS
Terre Haute    LGT RAIN  74  70  87 S10       29.86S FOG
Evansville     CLOUDY    74  70  87 SE10      29.85F
Indianapolis   CLOUDY    78  68  71 S20       29.88S HX  80
Lafayette      PTSUNNY   81  71  71 S14G23    29.82F HX  85
Madison        PTSUNNY   79  68  69 E5        29.71F HX  81
Milwaukee      PTSUNNY   75  66  73 N9        29.72F
$$






USA.gov is the U.S. government's official web portal to all federal, state and local government web resources and services.